Wendover, UT

9:30 AM MST on February 09, 2016 (GMT -0700)
Wendover

Weather History for KENV - September, 2013

Change the Weather History Date:

Sunday, September 22, 2013

  Actual Average Record
Temperature  
Mean Temperature 62 °F -  
Max Temperature 68 °F 72 °F 89 °F (1958)
Min Temperature 55 °F 48 °F 33 °F (1985)
Degree Days  
Heating Degree Days 4    
Growing Degree Days 12 (Base 50)    
Moisture  
Dew Point 33 °F    
Average Humidity 34    
Maximum Humidity 44    
Minimum Humidity 19    
Precipitation  
Precipitation 0.00 in - - ()
Sea Level Pressure  
Sea Level Pressure 29.74 in    
Wind  
Wind Speed 18 mph (NW)    
Max Wind Speed 30 mph    
Max Gust Speed 40 mph    
Visibility 10 miles    
Events      
Averages and records for this station are not official NWS values.
T = Trace of Precipitation, MM = Missing Value Source: NWS Daily Summary

Daily Weather History Graph

Daily Weather History Graph

Search for Another Location

Airport or City:

Trip Planner

Search our weather history database for the weather conditions in past years. The results will help you decide how hot, cold, wet, or windy it might be!

Date:

Astronomy

Sep. 22, 2013 Rise Set
Actual Time 7:23 AM MDT 7:32 PM MDT
Civil Twilight 6:56 AM MDT 8:00 PM MDT
Nautical Twilight 6:24 AM MDT 8:31 PM MDT
Astronomical Twilight 5:52 AM MDT 9:04 PM MDT
Moon 9:24 PM MDT (9/22) 10:49 AM MDT (9/22)
Length of Visible Light 13h 03m
Length of Day
12h 08m
Waning Gibbous, 88% of the Moon is Illuminated
Sep 22
Waning Gibbous
Sep 26
Last Quarter
Oct 4
New
Oct 11
First Quarter
Oct 18
Full

Hourly Weather History & Observations

Time (MDT) Temp. Dew Point Humidity Pressure Visibility Wind Dir Wind Speed Gust Speed Precip Events Conditions
12:15 AM 64.4 °F 21.2 °F 19% 29.60 in 10.0 mi WNW 12.7 mph 16.1 mph N/A   Clear
12:35 AM 64.4 °F 30.2 °F 28% 29.60 in 10.0 mi WNW 15.0 mph - N/A   Clear
12:55 AM 64.4 °F 30.2 °F 28% 29.61 in 10.0 mi NW 15.0 mph - N/A   Clear
1:15 AM 64.4 °F 30.2 °F 28% 29.61 in 10.0 mi WNW 11.5 mph - N/A   Clear
1:35 AM 64.4 °F 28.4 °F 26% 29.61 in 10.0 mi WNW 8.1 mph - N/A   Clear
1:55 AM 64.4 °F 30.2 °F 28% 29.62 in 10.0 mi NW 11.5 mph - N/A   Clear
2:15 AM 64.4 °F 30.2 °F 28% 29.62 in 10.0 mi WNW 11.5 mph - N/A   Clear
2:35 AM 60.8 °F 32.0 °F 34% 29.62 in 10.0 mi NW 18.4 mph - N/A   Clear
2:55 AM 62.6 °F 32.0 °F 32% 29.63 in 10.0 mi NW 20.7 mph 24.2 mph N/A   Clear
3:15 AM 60.8 °F 33.8 °F 36% 29.63 in 10.0 mi NW 23.0 mph 26.5 mph N/A   Clear
3:35 AM 60.8 °F 33.8 °F 36% 29.63 in 10.0 mi NW 23.0 mph 26.5 mph N/A   Clear
3:55 AM 60.8 °F 33.8 °F 36% 29.63 in 10.0 mi NNW 20.7 mph - N/A   Clear
4:15 AM 59.0 °F 33.8 °F 39% 29.63 in 9.0 mi NNW 25.3 mph 29.9 mph N/A   Clear
4:35 AM 57.2 °F 33.8 °F 41% 29.64 in 9.0 mi NW 27.6 mph 34.5 mph N/A   Clear
4:55 AM 57.2 °F 33.8 °F 41% 29.63 in 10.0 mi NW 23.0 mph 34.5 mph N/A   Clear
5:15 AM 57.2 °F 33.8 °F 41% 29.64 in 10.0 mi NNW 27.6 mph 35.7 mph N/A   Clear
5:35 AM 57.2 °F 33.8 °F 41% 29.64 in 10.0 mi NW 26.5 mph 34.5 mph N/A   Clear
5:55 AM 57.2 °F 33.8 °F 41% 29.65 in 8.0 mi NNW 29.9 mph 39.1 mph N/A   Clear
6:15 AM 57.2 °F 33.8 °F 41% 29.65 in 10.0 mi NNW 27.6 mph 35.7 mph N/A   Clear
6:35 AM 57.2 °F 33.8 °F 41% 29.65 in 10.0 mi NNW 28.8 mph 35.7 mph N/A   Clear
6:55 AM 57.2 °F 33.8 °F 41% 29.66 in 10.0 mi NNW 23.0 mph 31.1 mph N/A   Clear
7:15 AM 57.2 °F 33.8 °F 41% 29.66 in 10.0 mi NNW 21.9 mph 32.2 mph N/A   Clear
7:35 AM 57.2 °F 33.8 °F 41% 29.68 in 10.0 mi NNW 17.3 mph 27.6 mph N/A   Clear
7:55 AM 57.2 °F 33.8 °F 41% 29.69 in 10.0 mi NW 10.4 mph 18.4 mph N/A   Clear
8:15 AM 55.4 °F 33.8 °F 44% 29.69 in 10.0 mi NNW 21.9 mph 33.4 mph N/A   Clear
8:35 AM 57.2 °F 33.8 °F 41% 29.70 in 10.0 mi NW 23.0 mph 31.1 mph N/A   Clear
8:55 AM 57.2 °F 33.8 °F 41% 29.70 in 10.0 mi NW 27.6 mph 34.5 mph N/A   Clear
9:15 AM 57.2 °F 33.8 °F 41% 29.71 in 10.0 mi NW 24.2 mph 32.2 mph N/A   Clear
9:35 AM 57.2 °F 33.8 °F 41% 29.72 in 10.0 mi NNW 26.5 mph 40.3 mph N/A   Clear
9:55 AM 57.2 °F 33.8 °F 41% 29.72 in 10.0 mi NW 29.9 mph 35.7 mph N/A   Clear
10:15 AM 59.0 °F 35.6 °F 42% 29.72 in 10.0 mi NW 25.3 mph 34.5 mph N/A   Clear
10:35 AM 60.8 °F 35.6 °F 39% 29.73 in 10.0 mi NNW 27.6 mph 33.4 mph N/A   Clear
10:55 AM 60.8 °F 35.6 °F 39% 29.74 in 10.0 mi NNW 24.2 mph 33.4 mph N/A   Clear
11:15 AM 60.8 °F 35.6 °F 39% 29.75 in 10.0 mi NNW 19.6 mph 29.9 mph N/A   Clear
11:35 AM 62.6 °F 35.6 °F 37% 29.76 in 10.0 mi NW 25.3 mph 34.5 mph N/A   Clear
11:55 AM 62.6 °F 35.6 °F 37% 29.75 in 10.0 mi NW 25.3 mph 34.5 mph N/A   Clear
12:15 PM 62.6 °F 35.6 °F 37% 29.76 in 10.0 mi North 19.6 mph 32.2 mph N/A   Clear
12:35 PM 64.4 °F 35.6 °F 34% 29.76 in 10.0 mi NNW 19.6 mph 29.9 mph N/A   Clear
12:55 PM 64.4 °F 35.6 °F 34% 29.76 in 10.0 mi NW 19.6 mph 31.1 mph N/A   Clear
1:15 PM 66.2 °F 35.6 °F 32% 29.76 in 10.0 mi NW 18.4 mph 28.8 mph N/A   Clear
1:35 PM 66.2 °F 35.6 °F 32% 29.76 in 10.0 mi NW 19.6 mph 26.5 mph N/A   Clear
1:55 PM 66.2 °F 35.6 °F 32% 29.76 in 10.0 mi WNW 25.3 mph 33.4 mph N/A   Clear
2:15 PM 66.2 °F 35.6 °F 32% 29.75 in 10.0 mi WNW 20.7 mph 28.8 mph N/A   Clear
2:35 PM 66.2 °F 33.8 °F 30% 29.76 in 10.0 mi WNW 20.7 mph 31.1 mph N/A   Clear
2:55 PM 68.0 °F 33.8 °F 28% 29.76 in 10.0 mi NW 16.1 mph 25.3 mph N/A   Clear
3:15 PM 68.0 °F 33.8 °F 28% 29.76 in 10.0 mi WNW 19.6 mph 26.5 mph N/A   Scattered Clouds
3:35 PM 68.0 °F 33.8 °F 28% 29.76 in 10.0 mi NW 9.2 mph 20.7 mph N/A   Partly Cloudy
3:55 PM 68.0 °F 33.8 °F 28% 29.76 in 10.0 mi NNW 17.3 mph 24.2 mph N/A   Clear
4:15 PM 68.0 °F 33.8 °F 28% 29.76 in 10.0 mi NNW 21.9 mph 27.6 mph N/A   Clear
4:35 PM 68.0 °F 33.8 °F 28% 29.76 in 10.0 mi NW 24.2 mph 29.9 mph N/A   Clear
4:55 PM 68.0 °F 33.8 °F 28% 29.76 in 10.0 mi NNW 24.2 mph 28.8 mph N/A   Clear
5:15 PM 66.2 °F 32.0 °F 28% 29.77 in 10.0 mi NNW 24.2 mph 29.9 mph N/A   Clear
5:35 PM 66.2 °F 32.0 °F 28% 29.78 in 10.0 mi NNW 18.4 mph 25.3 mph N/A   Clear
5:55 PM 66.2 °F 32.0 °F 28% 29.78 in 10.0 mi NNW 15.0 mph 20.7 mph N/A   Clear
6:15 PM 66.2 °F 30.2 °F 26% 29.78 in 10.0 mi NNW 20.7 mph 26.5 mph N/A   Clear
6:35 PM 66.2 °F 30.2 °F 26% 29.80 in 10.0 mi NW 19.6 mph - N/A   Clear
6:55 PM 64.4 °F 30.2 °F 28% 29.81 in 10.0 mi NW 16.1 mph - N/A   Clear
7:15 PM 64.4 °F 30.2 °F 28% 29.82 in 10.0 mi NW 23.0 mph 31.1 mph N/A   Clear
7:35 PM 62.6 °F 30.2 °F 30% 29.83 in 10.0 mi NW 20.7 mph 28.8 mph N/A   Clear
7:55 PM 62.6 °F 30.2 °F 30% 29.83 in 10.0 mi NW 12.7 mph 20.7 mph N/A   Clear
8:15 PM 62.6 °F 30.2 °F 30% 29.85 in 10.0 mi NNW 13.8 mph 18.4 mph N/A   Clear
8:35 PM 62.6 °F 30.2 °F 30% 29.86 in 10.0 mi NW 10.4 mph 16.1 mph N/A   Clear
8:55 PM 60.8 °F 30.2 °F 31% 29.86 in 10.0 mi West 6.9 mph - N/A   Clear
9:15 PM 59.0 °F 30.2 °F 34% 29.88 in 10.0 mi West 8.1 mph - N/A   Clear
9:35 PM 57.2 °F 30.2 °F 36% 29.89 in 10.0 mi WNW 8.1 mph - N/A   Clear
9:55 PM 57.2 °F 30.2 °F 36% 29.90 in 10.0 mi West 10.4 mph - N/A   Scattered Clouds
10:15 PM 57.2 °F 32.0 °F 38% 29.91 in 10.0 mi NW 8.1 mph - N/A   Overcast
10:35 PM 59.0 °F 30.2 °F 34% 29.92 in 10.0 mi West 9.2 mph - N/A   Mostly Cloudy
10:55 PM 59.0 °F 30.2 °F 34% 29.92 in 10.0 mi NW 11.5 mph - N/A   Scattered Clouds
11:15 PM 59.0 °F 30.2 °F 34% 29.94 in 10.0 mi NNW 4.6 mph - N/A   Scattered Clouds
11:35 PM 59.0 °F 30.2 °F 34% 29.94 in 10.0 mi NNW 15.0 mph - N/A   Clear
11:55 PM 57.2 °F 30.2 °F 36% 29.94 in 10.0 mi NW 10.4 mph - N/A   Clear